SCP
0 0 0 0 0 0 0 0 0 0 0 0 0 0 0 0 0 0 0 0 0 0 0 0 0 0 0 0 0 0 0 0 0 0 0 0 0 0 0 0 0 0 0
0 0 0 0 0 0 0 0 0 0 0 0 0 0 0 0 0 0 0 0 0 0 0 0 0 0 0 0 0 0 0 0 0 0 0 0 0 0 0 0 0 0 0
0 0 0 0 0 0 0 0 0 0 0 0 0 0 0 0 0 0 0 0 0 0 0 0 0 0 0 0 0 0 0 0 0 0 0 0 0 0 0 0 0 0 0
0 0 0 0 0 0 0 0 0 0 0 0 0 0 0 0 0 0 0 0 0 0 0 0 0 0 0 0 0 0 0 0 0 0 0 0 0 0 0 0 0 0 0
0 0 0 0 0 0 0 0 0 0 0 0 0 0 0 0 0 0 0 0 0 0 0 0 0 0 0 0 0 0 0 0 0 0 0 0 0 0 0 0 0 0 0
0 0 0 0 0 0 0 0 0 0 0 0 0 0 0 0 0 0 0 0 0 0 0 0 0 0 0 0 0 0 0 0 0 0 0 0 0 0 0 0 0 0 0
0 0 0 0 0 0 0 0 0 0 0 0 0 0 0 0 0 0 0 0 0 0 0 0 0 0 0 0 0 0 0 0 0 0 0 0 0 0 0 0 0 0 0
0 0 0 0 0 0 0 0 0 0 0 0 0 0 0 0 0 0 0 0 0 0 0 0 0 0 0 0 0 0 0 0 0 0 0 0 0 0 0 0 0 0 0
0 0 0 0 0 0 0 0 0 0 0 0 0 0 0 0 0 0 0 0 0 0 0 0 0 0 0 0 0 0 0 0 0 0 0 0 0 0 0 0 0 0 0
0 0 0 0 0 0 0 0 0 0 0 0 0 0 0 0 0 0 0 0 0 0 0 0 0 0 0 0 0 0 0 0 0 0 0 0 0 0 0 0 0 0 0
0 0 0 0 0 0 0 0 0 0 0 0 0 0 0 0 0 0 0 0 0 0 0 0 0 0 0 0 0 0 0 0 0 0 0 0 0 0 0 0 0 0 0
0 0 0 0 0 0 0 0 0 0 0 0 0 0 0 0 0 0 0 0 0 0 0 0 0 0 0 0 0 0 0 0 0 0 0 0 0 0 0 0 0 0 0
0 0 0 0 0 0 0 0 0 0 0 0 0 0 0 0 0 0 0 0 0 0 0 0 0 0 0 0 0 0 0 0 0 0 0 0 0 0 0 0 0 0 0
0 0 0 0 0 0 0 0 0 0 0 0 0 0 0 0 0 0 0 0 0 0 0 0 0 0 0 0 0 0 0 0 0 0 0 0 0 0 0 0 0 0 0
0 0 0 0 0 0 0 0 0 0 0 0 0 0 0 0 0 0 0 0 0 0 0 0 0 0 0 0 0 0 0 0 0 0 0 0 0 0 0 0 0 0 0
0 0 0 0 0 0 0 0 0 0 0 0 0 0 0 0 0 0 0 0 0 0 0 0 0 0 0 0 0 0 0 0 0 0 0 0 0 0 0 0 0 0 0
0 0 0 0 0 0 0 0 0 0 0 0 0 0 0 0 0 0 0 0 0 0 0 0 0 0 0 0 0 0 0 0 0 0 0 0 0 0 0 0 0 0 0
0 0 0 0 0 0 0 0 0 0 0 0 0 0 0 0 0 0 0 0 0 0 0 0 0 0 0 0 0 0 0 0 0 0 0 0 0 0 0 0 0 0 0
0 0 0 0 0 0 0 0 0 0 0 0 0 0 0 0 0 0 0 0 0 0 0 0 0 0 0 0 0 0 0 0 0 0 0 0 0 0 0 0 0 0 0
0 0 0 0 0 0 0 0 0 0 0 0 0 0 0 0 0 0 0 0 0 0 0 0 0 0 0 0 0 0 0 0 0 0 0 0 0 0 0 0 0 0 0
0 0 0 0 0 0 0 0 0 0 0 0 0 0 0 0 0 0 0 0 0 0 0 0 0 0 0 0 0 0 0 0 0 0 0 0 0 0 0 0 0 0 0
0 0 0 0 0 0 0 0 0 0 0 0 0 0 0 0 0 0 0 0 0 0 0 0 0 0 0 0 0 0 0 0 0 0 0 0 0 0 0 0 0 0 0
0 0 0 0 0 0 0 0 0 0 0 0 0 0 0 0 0 0 0 0 0 0 0 0 0 0 0 0 0 0 0 0 0 0 0 0 0 0 0 0 0 0 0
0 0 0 0 0 0 0 0 0 0 0 0 0 0 0 0 0 0 0 0 0 0 0 0 0 0 0 0 0 0 0 0 0 0 0 0 0 0 0 0 0 0 0
0 0 0 0 0 0 0 0 0 0 0 0 0 0 0 0 0 0 0 0 0 0 0 0 0 0 0 0 0 0 0 0 0 0 0 0 0 0 0 0 0 0 0
0 0 0 0 0 0 0 0 0 0 0 0 0 0 0 0 0 0 0 0 0 0 0 0 0 0 0 0 0 0 0 0 0 0 0 0 0 0 0 0 0 0 0
Wind_Speed_500mb
33 43 54 64 72 79 87 92 97 99 100 101 100 97 94 90 87 88 92 96 102 108 107 103 96 87 79 81 82 82 73 69 64 64 59 57 51 45 41 36 33 30 29
19 25 32 39 50 65 77 85 88 90 90 90 89 91 90 91 90 89 91 88 93 100 105 113 108 96 90 90 86 82 75 70 68 66 59 55 56 48 43 40 36 34 32
28 33 37 41 45 49 55 64 75 83 89 87 83 84 86 89 90 91 92 90 96 98 95 102 115 109 107 103 88 88 78 74 67 65 62 57 56 56 52 45 42 39 36
27 32 38 42 44 46 46 50 56 64 73 79 79 77 78 79 84 86 83 87 93 96 93 100 94 119 106 110 90 87 82 76 70 64 60 56 58 57 53 49 48 43 41
31 34 34 37 41 42 43 43 43 47 53 62 71 78 81 81 82 77 77 81 84 84 93 89 80 103 104 112 106 87 89 78 73 67 65 63 62 61 56 53 52 47 43
39 38 38 40 43 43 42 42 43 43 47 51 56 62 74 77 75 76 73 77 81 81 87 87 91 110 110 90 97 98 70 70 68 67 65 66 62 57 49 52 50 48 42
44 44 43 41 41 43 44 44 44 45 48 51 53 56 59 64 71 72 69 71 76 82 84 85 96 99 97 99 96 70 68 55 60 59 57 58 52 47 45 44 53 46 43
47 44 42 41 41 42 44 44 45 47 49 50 50 52 57 54 54 58 61 70 74 75 85 74 73 88 91 68 65 74 58 59 56 54 50 48 45 38 36 49 41 45 43
37 37 39 41 41 44 45 46 47 46 44 42 42 42 47 49 54 54 56 57 56 57 56 63 62 75 70 78 78 63 57 65 61 53 46 43 35 37 49 46 52 47 47
30 32 35 38 41 45 46 49 49 47 43 36 33 35 36 34 37 43 50 52 54 55 53 60 59 55 51 45 49 46 63 57 57 49 42 37 39 38 52 49 51 47 54
19 21 25 31 31 33 37 38 39 37 34 30 30 33 36 33 36 34 39 40 45 48 56 55 54 44 47 43 37 45 47 45 41 35 35 42 40 48 43 59 50 59 55
20 23 26 29 31 32 34 33 33 30 26 23 24 29 33 35 37 38 39 36 37 42 44 42 42 38 36 34 39 41 42 39 32 39 49 42 48 51 55 57 51 55 54
22 22 24 26 27 27 28 28 27 23 20 20 21 24 29 32 35 39 43 42 36 34 31 26 30 34 38 41 43 40 41 32 39 49 49 55 44 50 55 54 59 59 55
15 15 16 17 18 19 22 22 22 20 19 18 20 21 24 27 32 33 34 34 35 33 33 35 33 31 36 45 49 48 42 38 52 66 53 51 48 60 58 56 56 55 56
8 3 3 6 8 9 12 14 12 13 16 17 20 21 21 22 22 22 24 23 21 25 29 30 35 34 37 42 43 44 43 52 66 53 66 66 54 60 59 61 57 54 62
9 5 2 2 4 3 2 3 3 5 8 12 12 11 10 8 8 10 12 15 18 24 30 37 40 42 49 48 49 57 68 68 53 70 75 66 55 60 66 59 61 62 65
10 4 3 5 4 2 1 5 7 7 5 5 5 5 5 7 6 4 6 12 16 22 30 36 42 49 54 59 61 64 61 57 64 72 68 69 73 69 66 59 63 70 72
12 7 5 3 3 3 5 7 9 14 12 6 5 5 3 4 8 10 13 22 30 35 38 39 41 45 49 53 61 58 70 67 75 65 60 67 68 68 69 62 61 66 70
9 7 7 8 6 6 6 6 6 4 3 3 4 8 8 9 11 12 15 22 27 36 41 46 50 52 56 60 65 72 74 69 60 57 54 56 62 63 65 64 64 65 67
17 14 13 12 14 12 13 10 10 9 8 4 3 5 7 10 12 13 15 21 27 33 39 43 45 49 52 54 57 59 58 55 51 50 52 51 50 53 57 59 61 63 66
21 19 16 13 15 14 14 13 14 13 12 11 11 11 14 16 17 21 25 27 31 35 39 43 47 51 53 53 53 52 52 53 50 50 51 52 54 57 58 60 63 64 63
24 25 24 20 18 15 12 10 11 11 13 16 18 22 24 25 27 28 30 32 36 41 46 49 52 55 56 56 56 56 57 57 57 56 57 59 60 61 61 60 59 59 58
25 21 16 11 9 6 4 8 11 14 17 19 22 24 27 30 33 35 38 39 40 41 44 49 52 53 56 59 62 65 66 66 67 67 67 65 61 59 56 53 52 53 54
15 10 6 2 1 4 8 12 16 19 22 24 25 28 31 34 38 41 44 46 47 48 49 51 52 54 55 57 59 60 62 64 66 65 62 60 57 53 50 48 47 46 46
12 9 8 8 8 9 12 15 18 22 24 27 28 29 32 34 36 39 45 48 51 53 55 55 55 56 57 57 56 56 54 54 54 55 53 50 51 48 46 45 43 42 40
15 14 13 12 12 16 19 20 23 27 28 30 32 34 36 38 41 41 41 43 45 45 46 48 48 48 48 49 50 50 48 46 43 43 44 43 44 43 43 42 40 39 37
Wind_Direction_500mb
252 254 254 253 255 257 260 264 268 271 271 274 275 276 276 277 274 268 264 263 260 255 251 249 249 250 244 243 245 246 245 234 234 238 238 231 225 221 222 228 236 244 255
271 271 268 267 263 260 259 260 262 265 268 269 270 272 273 272 272 273 267 265 265 265 260 255 251 248 239 241 242 244 240 233 235 234 227 222 221 221 223 228 232 242 249
269 273 275 274 272 271 268 265 263 263 264 265 267 267 269 271 271 271 267 263 270 263 264 261 255 247 242 239 239 238 229 227 232 231 226 223 222 219 222 226 231 239 246
279 284 286 285 280 279 278 276 272 269 266 264 263 263 267 272 272 272 272 271 271 268 268 264 268 249 248 245 242 235 231 225 227 223 225 226 221 218 222 227 230 235 242
288 289 295 288 283 281 278 276 276 275 272 269 265 259 260 263 268 272 275 274 274 276 272 271 266 268 244 247 250 226 229 225 221 219 221 218 216 217 221 227 229 234 239
287 287 279 281 280 282 283 280 276 276 275 273 272 270 263 262 266 269 270 273 275 276 277 279 264 261 251 246 244 238 234 225 221 221 221 220 215 219 220 227 234 233 238
281 283 274 272 275 277 277 278 279 280 280 277 275 274 271 266 262 265 265 267 271 272 273 272 275 262 242 248 236 222 223 220 228 235 228 220 217 219 230 248 235 237 242
278 273 266 266 272 276 278 280 280 280 280 281 280 278 275 271 261 260 261 272 270 272 274 272 272 265 257 244 226 237 218 221 225 218 209 216 214 218 238 243 240 242 248
276 276 273 276 282 284 282 280 277 280 282 281 283 285 280 272 264 259 263 269 279 280 281 281 272 263 249 228 224 216 211 217 220 216 216 215 208 241 242 241 251 243 255
275 278 283 287 290 292 292 289 287 287 286 288 296 302 303 299 282 273 264 267 271 274 279 274 265 245 233 232 224 213 220 228 218 210 211 211 248 232 242 248 248 259 255
277 284 290 291 292 292 288 284 280 281 286 292 297 300 301 297 286 278 278 275 277 273 272 267 254 233 219 218 210 217 232 226 210 206 238 259 250 246 250 256 254 261 256
291 294 295 296 300 298 289 278 272 274 275 283 291 291 291 293 287 283 277 275 274 271 265 259 247 240 228 205 218 218 208 203 223 259 261 269 254 246 250 258 262 261 261
288 292 295 299 298 293 284 276 273 272 278 283 286 287 289 295 294 291 291 288 281 263 258 241 225 214 209 217 221 213 206 224 262 264 269 284 258 249 259 259 264 264 265
278 286 302 305 304 306 298 290 279 276 274 273 276 284 298 305 306 302 300 297 288 275 250 235 235 227 218 208 202 206 221 256 284 269 283 277 246 253 259 264 269 268 267
215 254 328 317 328 321 309 293 280 275 280 284 288 293 296 298 302 301 302 295 283 259 234 228 226 220 229 233 228 227 255 273 266 272 289 269 248 256 259 270 272 271 270
207 200 245 315 357 327 296 255 196 203 262 283 287 304 311 315 320 311 296 280 257 246 242 237 235 241 238 224 231 255 267 261 268 285 276 268 254 261 261 271 273 274 274
210 221 269 306 334 316 220 172 138 110 88 54 20 47 15 349 320 288 240 269 275 267 258 258 255 244 237 244 260 260 260 282 285 291 280 268 262 259 261 265 269 271 270
194 221 236 254 255 173 164 168 145 128 112 82 7 357 329 277 270 273 269 260 263 266 269 268 267 266 261 261 267 269 283 283 293 288 285 276 266 263 263 265 270 274 275
169 173 171 150 138 124 123 149 149 149 163 197 269 299 288 277 268 267 258 256 262 266 270 274 276 272 267 265 263 270 278 284 286 284 280 278 273 269 268 269 269 269 272
155 148 142 137 129 120 109 95 78 70 67 45 4 317 288 288 282 268 261 267 269 271 278 284 285 284 284 281 278 279 281 281 282 282 281 279 278 278 277 278 279 277 273
159 153 144 129 112 101 88 79 66 49 37 19 1 343 331 319 304 289 280 270 260 257 259 263 267 270 274 277 279 280 280 281 281 281 280 279 277 277 278 278 277 275 275
145 139 135 130 120 105 93 70 47 25 8 358 347 339 331 327 319 310 300 293 288 284 281 280 278 278 278 278 277 275 274 275 276 277 277 277 278 278 277 276 274 272 271
149 143 137 129 113 99 23 4 347 335 325 320 316 313 312 309 308 306 302 300 296 291 287 285 285 283 282 280 279 279 279 279 279 280 282 282 282 281 279 274 272 270 270
156 153 157 163 327 332 322 323 324 322 321 321 318 314 308 303 301 299 298 298 298 296 293 291 288 286 283 282 281 280 279 279 279 280 280 280 279 276 272 271 270 271 273
196 215 243 264 280 292 306 314 317 318 321 322 322 319 317 314 308 303 299 297 295 295 295 293 292 291 291 291 289 289 288 286 284 282 280 277 275 274 273 272 271 271 271
236 247 258 265 279 290 300 308 311 312 312 313 314 314 313 313 311 310 308 305 303 300 298 297 296 295 294 293 293 293 293 292 290 286 282 279 276 275 273 272 270 268 267
Wind_Speed_850mb
33 43 54 64 72 79 87 92 97 99 100 101 100 97 94 90 87 88 92 96 102 108 107 103 96 87 79 81 82 82 73 69 64 64 59 57 51 45 41 36 33 30 29
19 25 32 39 50 65 77 85 88 90 90 90 89 91 90 91 90 89 91 88 93 100 105 113 108 96 90 90 86 82 75 70 68 66 59 55 56 48 43 40 36 34 32
28 33 37 41 45 49 55 64 75 83 89 87 83 84 86 89 90 91 92 90 96 98 95 102 115 109 107 103 88 88 78 74 67 65 62 57 56 56 52 45 42 39 36
27 32 38 42 44 46 46 50 56 64 73 79 79 77 78 79 84 86 83 87 93 96 93 100 94 119 106 110 90 87 82 76 70 64 60 56 58 57 53 49 48 43 41
31 34 34 37 41 42 43 43 43 47 53 62 71 78 81 81 82 77 77 81 84 84 93 89 80 103 104 112 106 87 89 78 73 67 65 63 62 61 56 53 52 47 43
39 38 38 40 43 43 42 42 43 43 47 51 56 62 74 77 75 76 73 77 81 81 87 87 91 110 110 90 97 98 70 70 68 67 65 66 62 57 49 52 50 48 42
44 44 43 41 41 43 44 44 44 45 48 51 53 56 59 64 71 72 69 71 76 82 84 85 96 99 97 99 96 70 68 55 60 59 57 58 52 47 45 44 53 46 43
47 44 42 41 41 42 44 44 45 47 49 50 50 52 57 54 54 58 61 70 74 75 85 74 73 88 91 68 65 74 58 59 56 54 50 48 45 38 36 49 41 45 43
37 37 39 41 41 44 45 46 47 46 44 42 42 42 47 49 54 54 56 57 56 57 56 63 62 75 70 78 78 63 57 65 61 53 46 43 35 37 49 46 52 47 47
30 32 35 38 41 45 46 49 49 47 43 36 33 35 36 34 37 43 50 52 54 55 53 60 59 55 51 45 49 46 63 57 57 49 42 37 39 38 52 49 51 47 54
19 21 25 31 31 33 37 38 39 37 34 30 30 33 36 33 36 34 39 40 45 48 56 55 54 44 47 43 37 45 47 45 41 35 35 42 40 48 43 59 50 59 55
20 23 26 29 31 32 34 33 33 30 26 23 24 29 33 35 37 38 39 36 37 42 44 42 42 38 36 34 39 41 42 39 32 39 49 42 48 51 55 57 51 55 54
22 22 24 26 27 27 28 28 27 23 20 20 21 24 29 32 35 39 43 42 36 34 31 26 30 34 38 41 43 40 41 32 39 49 49 55 44 50 55 54 59 59 55
15 15 16 17 18 19 22 22 22 20 19 18 20 21 24 27 32 33 34 34 35 33 33 35 33 31 36 45 49 48 42 38 52 66 53 51 48 60 58 56 56 55 56
8 3 3 6 8 9 12 14 12 13 16 17 20 21 21 22 22 22 24 23 21 25 29 30 35 34 37 42 43 44 43 52 66 53 66 66 54 60 59 61 57 54 62
9 5 2 2 4 3 2 3 3 5 8 12 12 11 10 8 8 10 12 15 18 24 30 37 40 42 49 48 49 57 68 68 53 70 75 66 55 60 66 59 61 62 65
10 4 3 5 4 2 1 5 7 7 5 5 5 5 5 7 6 4 6 12 16 22 30 36 42 49 54 59 61 64 61 57 64 72 68 69 73 69 66 59 63 70 72
12 7 5 3 3 3 5 7 9 14 12 6 5 5 3 4 8 10 13 22 30 35 38 39 41 45 49 53 61 58 70 67 75 65 60 67 68 68 69 62 61 66 70
9 7 7 8 6 6 6 6 6 4 3 3 4 8 8 9 11 12 15 22 27 36 41 46 50 52 56 60 65 72 74 69 60 57 54 56 62 63 65 64 64 65 67
17 14 13 12 14 12 13 10 10 9 8 4 3 5 7 10 12 13 15 21 27 33 39 43 45 49 52 54 57 59 58 55 51 50 52 51 50 53 57 59 61 63 66
21 19 16 13 15 14 14 13 14 13 12 11 11 11 14 16 17 21 25 27 31 35 39 43 47 51 53 53 53 52 52 53 50 50 51 52 54 57 58 60 63 64 63
24 25 24 20 18 15 12 10 11 11 13 16 18 22 24 25 27 28 30 32 36 41 46 49 52 55 56 56 56 56 57 57 57 56 57 59 60 61 61 60 59 59 58
25 21 16 11 9 6 4 8 11 14 17 19 22 24 27 30 33 35 38 39 40 41 44 49 52 53 56 59 62 65 66 66 67 67 67 65 61 59 56 53 52 53 54
15 10 6 2 1 4 8 12 16 19 22 24 25 28 31 34 38 41 44 46 47 48 49 51 52 54 55 57 59 60 62 64 66 65 62 60 57 53 50 48 47 46 46
12 9 8 8 8 9 12 15 18 22 24 27 28 29 32 34 36 39 45 48 51 53 55 55 55 56 57 57 56 56 54 54 54 55 53 50 51 48 46 45 43 42 40
15 14 13 12 12 16 19 20 23 27 28 30 32 34 36 38 41 41 41 43 45 45 46 48 48 48 48 49 50 50 48 46 43 43 44 43 44 43 43 42 40 39 37
Wind_Direction_850mb
252 254 254 253 255 257 260 264 268 271 271 274 275 276 276 277 274 268 264 263 260 255 251 249 249 250 244 243 245 246 245 234 234 238 238 231 225 221 222 228 236 244 255
271 271 268 267 263 260 259 260 262 265 268 269 270 272 273 272 272 273 267 265 265 265 260 255 251 248 239 241 242 244 240 233 235 234 227 222 221 221 223 228 232 242 249
269 273 275 274 272 271 268 265 263 263 264 265 267 267 269 271 271 271 267 263 270 263 264 261 255 247 242 239 239 238 229 227 232 231 226 223 222 219 222 226 231 239 246
279 284 286 285 280 279 278 276 272 269 266 264 263 263 267 272 272 272 272 271 271 268 268 264 268 249 248 245 242 235 231 225 227 223 225 226 221 218 222 227 230 235 242
288 289 295 288 283 281 278 276 276 275 272 269 265 259 260 263 268 272 275 274 274 276 272 271 266 268 244 247 250 226 229 225 221 219 221 218 216 217 221 227 229 234 239
287 287 279 281 280 282 283 280 276 276 275 273 272 270 263 262 266 269 270 273 275 276 277 279 264 261 251 246 244 238 234 225 221 221 221 220 215 219 220 227 234 233 238
281 283 274 272 275 277 277 278 279 280 280 277 275 274 271 266 262 265 265 267 271 272 273 272 275 262 242 248 236 222 223 220 228 235 228 220 217 219 230 248 235 237 242
278 273 266 266 272 276 278 280 280 280 280 281 280 278 275 271 261 260 261 272 270 272 274 272 272 265 257 244 226 237 218 221 225 218 209 216 214 218 238 243 240 242 248
276 276 273 276 282 284 282 280 277 280 282 281 283 285 280 272 264 259 263 269 279 280 281 281 272 263 249 228 224 216 211 217 220 216 216 215 208 241 242 241 251 243 255
275 278 283 287 290 292 292 289 287 287 286 288 296 302 303 299 282 273 264 267 271 274 279 274 265 245 233 232 224 213 220 228 218 210 211 211 248 232 242 248 248 259 255
277 284 290 291 292 292 288 284 280 281 286 292 297 300 301 297 286 278 278 275 277 273 272 267 254 233 219 218 210 217 232 226 210 206 238 259 250 246 250 256 254 261 256
291 294 295 296 300 298 289 278 272 274 275 283 291 291 291 293 287 283 277 275 274 271 265 259 247 240 228 205 218 218 208 203 223 259 261 269 254 246 250 258 262 261 261
288 292 295 299 298 293 284 276 273 272 278 283 286 287 289 295 294 291 291 288 281 263 258 241 225 214 209 217 221 213 206 224 262 264 269 284 258 249 259 259 264 264 265
278 286 302 305 304 306 298 290 279 276 274 273 276 284 298 305 306 302 300 297 288 275 250 235 235 227 218 208 202 206 221 256 284 269 283 277 246 253 259 264 269 268 267
215 254 328 317 328 321 309 293 280 275 280 284 288 293 296 298 302 301 302 295 283 259 234 228 226 220 229 233 228 227 255 273 266 272 289 269 248 256 259 270 272 271 270
207 200 245 315 357 327 296 255 196 203 262 283 287 304 311 315 320 311 296 280 257 246 242 237 235 241 238 224 231 255 267 261 268 285 276 268 254 261 261 271 273 274 274
210 221 269 306 334 316 220 172 138 110 88 54 20 47 15 349 320 288 240 269 275 267 258 258 255 244 237 244 260 260 260 282 285 291 280 268 262 259 261 265 269 271 270
194 221 236 254 255 173 164 168 145 128 112 82 7 357 329 277 270 273 269 260 263 266 269 268 267 266 261 261 267 269 283 283 293 288 285 276 266 263 263 265 270 274 275
169 173 171 150 138 124 123 149 149 149 163 197 269 299 288 277 268 267 258 256 262 266 270 274 276 272 267 265 263 270 278 284 286 284 280 278 273 269 268 269 269 269 272
155 148 142 137 129 120 109 95 78 70 67 45 4 317 288 288 282 268 261 267 269 271 278 284 285 284 284 281 278 279 281 281 282 282 281 279 278 278 277 278 279 277 273
159 153 144 129 112 101 88 79 66 49 37 19 1 343 331 319 304 289 280 270 260 257 259 263 267 270 274 277 279 280 280 281 281 281 280 279 277 277 278 278 277 275 275
145 139 135 130 120 105 93 70 47 25 8 358 347 339 331 327 319 310 300 293 288 284 281 280 278 278 278 278 277 275 274 275 276 277 277 277 278 278 277 276 274 272 271
149 143 137 129 113 99 23 4 347 335 325 320 316 313 312 309 308 306 302 300 296 291 287 285 285 283 282 280 279 279 279 279 279 280 282 282 282 281 279 274 272 270 270
156 153 157 163 327 332 322 323 324 322 321 321 318 314 308 303 301 299 298 298 298 296 293 291 288 286 283 282 281 280 279 279 279 280 280 280 279 276 272 271 270 271 273
196 215 243 264 280 292 306 314 317 318 321 322 322 319 317 314 308 303 299 297 295 295 295 293 292 291 291 291 289 289 288 286 284 282 280 277 275 274 273 272 271 271 271
236 247 258 265 279 290 300 308 311 312 312 313 314 314 313 313 311 310 308 305 303 300 298 297 296 295 294 293 293 293 293 292 290 286 282 279 276 275 273 272 270 268 267